Regional Weather Roundup
Issued by NWS

Home | Current Version | Previous Version | Text Only | Print | Product List | Glossary On
Versions: 1 2 3 4 5 6 7 8 9 10 11 12 13 14 15 16 17 18 19 20 21 22 23 24 25 26 27 28 29 30 31 32 33 34 35 36 37 38 39 40 41 42 43 44 45 46 47 48 49 50
000
ASUS45 KSLC 261410
RWRUT

UTAH REGIONAL WEATHER ROUNDUP
NATIONAL WEATHER SERVICE SALT LAKE CITY UT
800 AM MDT SAT JUL 26 2014

UTZ001>011-023>025-261500-

NORTHERN UTAH

CITY           SKY/WX    TMP DP  RH WIND       PRES   REMARKS
HILL AFB       SUNNY     70  40  33 E14       30.15R
LOGAN          SUNNY     58  45  62 CALM      30.18R
OGDEN          SUNNY     70  40  33 S5        30.12R
PROVO AIRPORT  MOSUNNY   68  48  49 CALM      30.15R
SALT LAKE CITY MOSUNNY   72  50  45 CALM      30.11R
VERNAL         SUNNY     67  51  56 CALM      30.17R
WENDOVER       MOSUNNY   73  34  23 CALM      30.14R
HEBER CITY     SUNNY     63  46  55 CALM      30.22R
WEST JORDAN    SUNNY     73  46  38 NW6       30.14R

$$

UTZ012>022-026-027-261500-

SOUTHERN UTAH

CITY           SKY/WX    TMP DP  RH WIND       PRES   REMARKS
BRYCE CANYON   MOSUNNY   55  47  74 W7        30.39R
CEDAR CITY     MOSUNNY   72  50  45 SE3       30.24R
MILFORD        PTSUNNY   74  50  42 SW10      30.18R
MOAB/CYNLANDS  SUNNY     77  48  35 CALM      30.11R
PRICE          MOSUNNY   73  46  38 CALM      30.22R
ST GEORGE      SUNNY     81  52  36 CALM      30.06R

$$

REGIONAL REPORTS     COLORADO/ARIZONA

CITY           SKY/WX    TMP DP  RH WIND       PRES   REMARKS
CRAIG, CO      PTSUNNY   55  55 100 CALM      30.26R
GRAND JUNCTION SUNNY     71  53  52 SE10      30.17R
RIFLE          MOSUNNY   66  49  54 W5        30.24R
MONTROSE       SUNNY     69  51  52 CALM      30.26R
CORTEZ         SUNNY     64  48  56 NE5       30.26R
PAGE, AZ       PTSUNNY   82  50  32 SE8       30.13R
GRAND CANYON   CLOUDY    64  50  60 CALM      30.35R
KINGMAN        MOSUNNY   74  61  63 SE13      30.11R
FLAGSTAFF      PTSUNNY   62  48  60 CALM      30.37R

$$

REGIONAL REPORTS    NEVADA/IDAHO/WYOMING

CITY           SKY/WX    TMP DP  RH WIND       PRES   REMARKS
LAS VEGAS, NV  PTSUNNY   88  57  34 S15       29.92R
ELY            MOSUNNY   59  37  44 CALM      30.28R
ELKO           SUNNY     59  29  31 NE3       30.21R
POCATELLO, ID  SUNNY     65  29  25 VRB6      30.20R
BURLEY         SUNNY     57  39  51 SW5       30.17S
EVANSTON, WY   SUNNY     63  34  33 CALM      30.32R
ROCK SPRINGS   SUNNY     61  23  23 W6        30.28R

$$


USA.gov is the U.S. government's official web portal to all federal, state and local government web resources and services.